Sitka, Alaska, United States (99835)
Lat: 57.05N, Lon: 135.33W
Wx Zone: AKZ023
Local Info
Past Weather Observations for Monday, October 27, 2014

NOTE: This archive is for the closest National Weather Service station to Sitka. Information may differ from the station used for current weather conditions.

Click here for Long-term Archive

Time Weather Temperature Dewpoint Humidity Pressure Winds Precip Visibility
23:53
Partly Cloudy
37°F / 3°C 32°F / 0°C 81% 29.5 in
(999 mb)
Calm - 10SM
22:53
Clear
37°F / 3°C 34°F / 1°C 87% 29.5 in
(999 mb)
E 3.5 mph
(E 6 kph)
- 10SM
21:53
Clear
39°F / 4°C 36°F / 2°C 87% 29.53 in
(1000 mb)
Calm - 10SM
20:53
Clear
37°F / 3°C 34°F / 1°C 87% 29.56 in
(1001 mb)
NNW 4.6 mph
(NNW 7 kph)
- 10SM
19:53
Clear
39°F / 4°C 36°F / 2°C 87% 29.59 in
(1002 mb)
Calm - 10SM
18:53
Partly Cloudy
43°F / 6°C 36°F / 2°C 76% 29.62 in
(1003 mb)
Calm - 10SM
17:53
Clear
45°F / 7°C 37°F / 3°C 76% 29.65 in
(1004 mb)
WNW 4.6 mph
(WNW 7 kph)
- 10SM
16:53
Partly Cloudy
45°F / 7°C 34°F / 1°C 66% 29.68 in
(1005 mb)
E 9.2 mph
(E 15 kph)
- 10SM
15:53
Partly Cloudy
48°F / 9°C 34°F / 1°C 58% 29.71 in
(1006 mb)
E 15 mph
(E 24 kph)
- 10SM
14:53
Partly Cloudy
50°F / 10°C 36°F / 2°C 58% 29.71 in
(1006 mb)
NE 8.1 mph
(NE 13 kph)
- 10SM
13:53
Partly Cloudy
48°F / 9°C 39°F / 4°C 71% 29.74 in
(1007 mb)
NE 5.8 mph
(NE 9 kph)
- 10SM
12:53
Partly Cloudy
46°F / 8°C 41°F / 5°C 82% 29.77 in
(1008 mb)
NW 6.9 mph
(NW 11 kph)
- 10SM
11:53
Partly Cloudy
48°F / 9°C 39°F / 4°C 71% 29.8 in
(1009 mb)
Variable 5.8 mph
(Variable 9 kph)
- 10SM
10:53
Partly Cloudy
46°F / 8°C 41°F / 5°C 82% 29.8 in
(1009 mb)
NNW 8.1 mph
(NNW 13 kph)
- 10SM
09:53
Partly Cloudy
45°F / 7°C 41°F / 5°C 87% 29.83 in
(1010 mb)
NNW 3.5 mph
(NNW 6 kph)
- 10SM
08:53
Partly Cloudy
43°F / 6°C 41°F / 5°C 93% 29.83 in
(1010 mb)
Calm - 10SM
07:53
Mostly Cloudy
39°F / 4°C 39°F / 4°C 100% 29.83 in
(1010 mb)
ENE 4.6 mph
(ENE 7 kph)
- 10SM
06:53
Mostly Cloudy
39°F / 4°C 39°F / 4°C 100% 29.83 in
(1010 mb)
Calm 0.00 in
(0.00 mm)
10SM
05:53
Overcast
Light Rain
43°F / 6°C 43°F / 6°C 100% 29.83 in
(1010 mb)
SSE 3.5 mph
(SSE 6 kph)
0.01 in
(0.25 mm)
10SM
04:53
Overcast
Light Rain
41°F / 5°C 39°F / 4°C 93% 29.86 in
(1011 mb)
ENE 4.6 mph
(ENE 7 kph)
0.02 in
(0.51 mm)
10SM
03:53
Overcast
43°F / 6°C 39°F / 4°C 87% 29.86 in
(1011 mb)
SE 11.5 mph
(SE 19 kph)
0.00 in
(0.00 mm)
10SM
02:53
Overcast
41°F / 5°C 39°F / 4°C 93% 29.89 in
(1012 mb)
E 11.5 mph
(E 19 kph)
0.01 in
(0.25 mm)
10SM
01:53
Overcast
Light Rain
43°F / 6°C 41°F / 5°C 93% 29.89 in
(1012 mb)
ESE 8.1 mph
(ESE 13 kph)
0.01 in
(0.25 mm)
10SM
00:53
Overcast
Light Rain
43°F / 6°C 41°F / 5°C 93% 29.89 in
(1012 mb)
Variable 4.6 mph
(Variable 7 kph)
0.02 in
(0.51 mm)
9SM
Time Weather Temperature Dewpoint Humidity Pressure Winds Precip Visibility


Weather for websites

WeatherForYou.com, LLC is not responsible for any damages or problems caused by this service. Current weather conditions are obtained from the closest station including government and personal stations which may have varying degrees of accuracy. Weather forecasts are derived from the NOAA NDFD. Like all things, this site belongs to Jesus Christ... He just trusts me to maintain it. If you have any questions or comments email webmaster@weatherforyou.com

Copyright © 2014, WeatherForYou.com LLC. All rights reserved.